TimeAKDT,TemperatureF,Dew PointF,Humidity,Sea Level PressureIn,VisibilityMPH,Wind Direction,Wind SpeedMPH,Gust SpeedMPH,PrecipitationIn,Events,Conditions,WindDirDegrees,DateUTC
12:16 AM,24.8,10.4,54,29.69,10.0,Calm,Calm,-,N/A,,Clear,0,2012-10-12 08:16:00
12:36 AM,24.8,10.4,54,29.68,10.0,Calm,Calm,-,N/A,,Clear,0,2012-10-12 08:36:00
12:56 AM,24.8,10.4,54,29.68,10.0,Calm,Calm,-,N/A,,Clear,0,2012-10-12 08:56:00
1:16 AM,24.8,10.4,54,29.67,10.0,Calm,Calm,-,N/A,,Clear,0,2012-10-12 09:16:00
1:36 AM,24.8,10.4,54,29.66,10.0,Calm,Calm,-,N/A,,Clear,0,2012-10-12 09:36:00
1:56 AM,23.0,10.4,59,29.66,10.0,Calm,Calm,-,N/A,,Clear,0,2012-10-12 09:56:00
2:16 AM,23.0,10.4,59,29.65,10.0,Calm,Calm,-,N/A,,Clear,0,2012-10-12 10:16:00
2:36 AM,23.0,10.4,59,29.64,10.0,Calm,Calm,-,N/A,,Clear,0,2012-10-12 10:36:00
2:56 AM,21.2,10.4,63,29.63,10.0,Calm,Calm,-,N/A,,Clear,0,2012-10-12 10:56:00
3:16 AM,21.2,10.4,63,29.63,10.0,Calm,Calm,-,N/A,,Clear,0,2012-10-12 11:16:00
3:36 AM,21.2,10.4,63,29.62,10.0,Calm,Calm,-,N/A,,Clear,0,2012-10-12 11:36:00
4:16 AM,21.2,10.4,63,29.61,10.0,Calm,Calm,-,N/A,,Clear,0,2012-10-12 12:16:00
4:36 AM,21.2,10.4,63,29.60,10.0,Calm,Calm,-,N/A,,Clear,0,2012-10-12 12:36:00
4:56 AM,19.4,10.4,68,29.60,10.0,Calm,Calm,-,N/A,,Clear,0,2012-10-12 12:56:00
5:16 AM,19.4,10.4,68,29.59,10.0,Calm,Calm,-,N/A,,Clear,0,2012-10-12 13:16:00
5:36 AM,19.4,10.4,68,29.58,10.0,Calm,Calm,-,N/A,,Clear,0,2012-10-12 13:36:00
5:56 AM,21.2,12.2,68,29.57,10.0,Calm,Calm,-,N/A,,Clear,0,2012-10-12 13:56:00
6:16 AM,21.2,10.4,63,29.56,10.0,Calm,Calm,-,N/A,,Clear,0,2012-10-12 14:16:00
6:36 AM,21.2,12.2,68,29.56,10.0,Calm,Calm,-,N/A,,Clear,0,2012-10-12 14:36:00
6:56 AM,21.2,10.4,63,29.55,10.0,Calm,Calm,-,N/A,,Clear,0,2012-10-12 14:56:00
7:16 AM,19.4,8.6,63,29.55,10.0,Calm,Calm,-,N/A,,Clear,0,2012-10-12 15:16:00
7:36 AM,19.4,10.4,68,29.54,10.0,Calm,Calm,-,N/A,,Scattered Clouds,0,2012-10-12 15:36:00
7:56 AM,19.4,10.4,68,29.54,10.0,Calm,Calm,-,N/A,,Overcast,0,2012-10-12 15:56:00
8:16 AM,19.4,10.4,68,29.54,10.0,Calm,Calm,-,N/A,,Overcast,0,2012-10-12 16:16:00
8:36 AM,19.4,12.2,74,29.53,10.0,Calm,Calm,-,N/A,,Overcast,0,2012-10-12 16:36:00
8:56 AM,19.4,10.4,68,29.52,10.0,Calm,Calm,-,N/A,,Overcast,0,2012-10-12 16:56:00
9:16 AM,21.2,10.4,63,29.52,10.0,Calm,Calm,-,N/A,,Overcast,0,2012-10-12 17:16:00
9:36 AM,21.2,10.4,63,29.51,10.0,Calm,Calm,-,N/A,,Overcast,0,2012-10-12 17:36:00
9:56 AM,23.0,10.4,59,29.51,10.0,Calm,Calm,-,N/A,,Overcast,0,2012-10-12 17:56:00
11:16 AM,24.8,12.2,59,29.49,10.0,Calm,Calm,-,N/A,,Overcast,0,2012-10-12 19:16:00
11:36 AM,24.8,12.2,59,29.49,10.0,Calm,Calm,-,N/A,,Overcast,0,2012-10-12 19:36:00
11:56 AM,24.8,12.2,59,29.49,10.0,Calm,Calm,-,N/A,,Overcast,0,2012-10-12 19:56:00
12:16 PM,26.6,12.2,55,29.49,10.0,NE,3.5,-,N/A,,Overcast,40,2012-10-12 20:16:00
2:16 PM,28.4,14.0,55,29.46,10.0,Calm,Calm,-,N/A,,Overcast,0,2012-10-12 22:16:00
2:36 PM,30.2,14.0,51,29.46,10.0,NE,4.6,-,N/A,,Overcast,40,2012-10-12 22:36:00
2:56 PM,30.2,12.2,47,29.46,10.0,NE,4.6,-,N/A,,Mostly Cloudy,40,2012-10-12 22:56:00
3:16 PM,32.0,12.2,44,29.45,10.0,NNE,4.6,-,N/A,,Mostly Cloudy,30,2012-10-12 23:16:00
3:36 PM,30.2,12.2,47,29.45,10.0,NE,3.5,-,N/A,,Overcast,40,2012-10-12 23:36:00
3:56 PM,30.2,12.2,47,29.44,10.0,NNE,4.6,-,N/A,,Scattered Clouds,30,2012-10-12 23:56:00
4:16 PM,30.2,14.0,51,29.44,10.0,NE,3.5,-,N/A,,Scattered Clouds,40,2012-10-13 00:16:00
4:36 PM,30.2,15.8,55,29.44,10.0,NNE,4.6,-,N/A,,Mostly Cloudy,30,2012-10-13 00:36:00
4:56 PM,30.2,12.2,47,29.43,10.0,NNE,4.6,-,N/A,,Mostly Cloudy,30,2012-10-13 00:56:00
5:16 PM,30.2,12.2,47,29.43,10.0,NNE,4.6,-,N/A,,Overcast,30,2012-10-13 01:16:00
5:36 PM,28.4,12.2,51,29.43,10.0,NNE,4.6,-,N/A,,Mostly Cloudy,30,2012-10-13 01:36:00
5:56 PM,28.4,10.4,47,29.43,10.0,NNE,4.6,-,N/A,,Scattered Clouds,30,2012-10-13 01:56:00
6:16 PM,28.4,12.2,51,29.43,10.0,NNE,3.5,-,N/A,,Clear,20,2012-10-13 02:16:00
6:36 PM,28.4,12.2,51,29.43,10.0,NNE,3.5,-,N/A,,Mostly Cloudy,30,2012-10-13 02:36:00
6:56 PM,26.6,12.2,55,29.43,10.0,NNE,4.6,-,N/A,,Mostly Cloudy,30,2012-10-13 02:56:00
7:16 PM,26.6,12.2,55,29.43,10.0,Calm,Calm,-,N/A,,Mostly Cloudy,0,2012-10-13 03:16:00
7:36 PM,24.8,12.2,59,29.43,10.0,Calm,Calm,-,N/A,,Partly Cloudy,0,2012-10-13 03:36:00
7:56 PM,24.8,12.2,59,29.43,10.0,NNE,3.5,-,N/A,,Clear,30,2012-10-13 03:56:00
8:16 PM,24.8,12.2,59,29.43,10.0,NNE,3.5,-,N/A,,Clear,30,2012-10-13 04:16:00
8:36 PM,23.0,12.2,63,29.43,10.0,Calm,Calm,-,N/A,,Clear,0,2012-10-13 04:36:00
8:56 PM,23.0,12.2,63,29.42,10.0,NNE,4.6,-,N/A,,Clear,30,2012-10-13 04:56:00
9:16 PM,21.2,12.2,68,29.42,10.0,Calm,Calm,-,N/A,,Clear,0,2012-10-13 05:16:00
10:16 PM,21.2,10.4,63,29.42,10.0,NNE,3.5,-,N/A,,Clear,30,2012-10-13 06:16:00
10:36 PM,21.2,10.4,63,29.42,10.0,Calm,Calm,-,N/A,,Clear,0,2012-10-13 06:36:00
10:56 PM,19.4,10.4,68,29.42,10.0,NNE,3.5,-,N/A,,Clear,30,2012-10-13 06:56:00
11:16 PM,19.4,10.4,68,29.41,10.0,NE,4.6,-,N/A,,Clear,40,2012-10-13 07:16:00
11:36 PM,21.2,10.4,63,29.40,10.0,NE,5.8,-,N/A,,Clear,40,2012-10-13 07:36:00
11:56 PM,21.2,10.4,63,29.41,10.0,NNE,3.5,-,N/A,,Clear,30,2012-10-13 07:56:00